Location: Sinnemahoning State Park
(41.4031°N, 78.0230°W)
Time: 11:15:44
(UTC-04:00)

Daily predictions for brighter satellites

Satellite Brightness Start Highest point End
(mag) Time Altitude Azimuth Time Altitude Azimuth Time Altitude Azimuth
SeaSat 1 2.8 19:56:00 10° SE 20:00:44 49° ENE 20:05:29 10° NNW
FENGYUN 3A 3.7 20:00:05 10° SSE 20:05:27 70° ENE 20:10:49 10° N
Cosmos 1125 Rocket 3.5 20:01:01 10° S 20:06:09 64° ESE 20:11:19 10° NNE
Cosmos 2123 Rocket 4.1 20:00:02 10° N 20:06:23 89° E 20:12:39 10° S
Cosmos 1048 Rocket 4.1 20:03:26 10° NNW 20:08:29 56° ENE 20:13:30 10° SE
Lacrosse 5 rocket 1.8 20:07:12 10° NNW 20:10:58 40° NE 20:14:25 11° ESE
Cosmos 2344 4.2 20:03:27 10° SW 20:11:04 67° NW 20:19:46 10° NNE
Cosmos 1833 Rocket 2.8 20:06:36 10° NNW 20:12:09 56° ENE 20:17:40 10° SE
Helios 1B rocket 3.6 20:10:37 10° NE 20:13:48 21° E 20:16:57 10° SE
CZ-2D R/B 3.8 20:11:14 10° SE 20:14:49 38° ENE 20:18:27 10° N
Cosmos 1408 Rocket 4.0 20:12:01 10° N 20:16:16 41° ENE 20:20:29 10° SSE
Cosmos 1805 3.2 20:13:37 10° S 20:17:30 88° E 20:21:26 10° N
ISS -3.9 20:15:59 10° SW 20:19:13 72° SE 20:22:29 10° ENE
HJ-1C 3.5 20:16:50 10° SSE 20:20:14 85° WSW 20:23:42 10° NNW
Resurs 1-3 3.7 20:16:59 10° SSE 20:21:16 55° ENE 20:25:34 10° N
ATLAS 5 CENTAUR R/B 1.8 20:17:44 10° SSW 20:22:20 64° ESE 20:27:21 10° NE
Cosmos 2278 Rocket 3.5 20:18:55 10° SW 20:24:20 45° WNW 20:29:47 10° NNE
Meteor 1-21 Rocket 4.3 20:19:57 10° N 20:25:49 71° E 20:31:43 10° SSE
SWAS 4.4 20:22:39 10° SSW 20:26:55 72° ESE 20:31:14 10° NNE
Cosmos 1733 3.6 20:26:06 10° SSE 20:29:43 40° E 20:33:22 10° NNE
Cosmos 1076 Rocket 3.4 20:27:36 10° N 20:31:52 89° E 20:36:06 10° S
CZ-3B DEB 4.0 20:22:19 10° WSW 20:32:27 43° NW 20:37:21 10° NE
Cosmos 1470 2.9 20:32:46 10° S 20:36:37 52° E 20:40:30 10° NNE
Cosmos 1459 Rocket 4.1 20:33:05 10° SSE 20:39:06 52° E 20:45:03 10° NNE
Helios 1A 3.2 20:36:02 11° SE 20:39:55 48° ENE 20:43:58 10° N
Cosmos 2061 Rocket 4.2 20:34:03 10° SSE 20:40:10 50° E 20:46:20 10° NNE
Meteor 1-29 3.7 20:37:59 10° NE 20:41:06 30° E 20:43:56 12° SSE
Cosmos 2297 4.2 20:38:01 10° SSW 20:43:42 67° WNW 20:49:27 10° NNE
Lacrosse 5 3.9 20:39:31 10° W 20:43:44 25° NNW 20:47:57 10° NNE
Timation 2 Rocket 3.9 20:39:03 10° NNW 20:45:23 89° WSW 20:51:26 10° SSE
H-2A R/B 3.5 20:43:44 10° S 20:47:34 56° W 20:51:29 10° NNW
Cosmos 2173 Rocket 4.0 20:42:29 10° S 20:48:33 61° E 20:54:44 10° NNE
Cosmos 372 Rocket 4.3 20:44:29 10° SSW 20:49:35 70° WNW 20:54:45 10° NNE
Cosmos 158 Rocket 4.2 20:45:43 10° NNW 20:50:51 72° WSW 20:56:07 10° S
USA 215 4.0 20:46:36 10° ENE 20:52:09 29° SE 20:57:41 10° S
COSMOS 2487 3.6 20:48:48 10° NNW 20:52:14 44° WSW 20:55:38 10° S
Cosmos 2251 Rocket 4.0 20:48:10 10° N 20:53:16 44° ENE 20:56:03 24° ESE
Cosmos 2082 Rocket 2.7 20:48:57 10° NNW 20:54:33 60° WSW 21:00:05 10° S
SAR-Lupe-4 3.4 20:51:47 16° SSE 20:54:34 77° ENE 20:58:10 10° N
Cosmos 1340 Rocket 2.7 20:50:35 10° N 20:54:36 74° E 20:57:44 16° SSE
Cosmos 1356 Rocket 4.0 20:52:42 10° N 20:56:30 36° ENE 20:57:27 31° ESE
YAOGAN 6 4.1 21:01:03 22° ENE 21:01:03 22° ENE 21:03:35 10° NNE
Cosmos-2242 3.2 20:57:14 10° SSW 21:01:28 74° W 21:05:45 10° N
Cosmos 1766 Rocket 4.3 20:59:47 10° NNW 21:04:11 56° W 21:08:33 10° S
BREEZE-M DEB (TANK) 3.2 21:01:31 10° SW 21:04:55 71° SSE 21:16:19 10° ENE
ALOS 4.5 21:04:09 10° SSW 21:08:03 26° W 21:11:57 10° NW
Meteor 1-16 Rocket 4.3 21:02:56 10° S 21:08:39 57° E 21:14:28 10° NNE
Meteor 1-11 4.4 21:06:49 10° N 21:12:15 51° ENE 21:14:30 32° SE
Cosmos 1271 Rocket 3.6 21:09:00 10° SSW 21:12:56 52° WNW 21:16:53 10° N
SAR-Lupe-1 4.2 21:11:15 24° S 21:13:14 71° WSW 21:16:50 10° NNW
GP-B 3.7 21:09:22 10° S 21:13:43 57° W 21:18:07 10° N
SL-14 R/B 3.2 21:10:58 10° N 21:14:48 57° E 21:15:15 52° ESE
Cosmos 1674 4.3 21:12:36 10° NNW 21:16:05 35° W 21:19:35 10° SSW
Gblst 52 Del rocket 4.2 21:10:11 10° SW 21:16:07 59° SE 21:19:15 26° ENE
Cosmos 494 Rocket 3.8 21:12:45 10° NNW 21:17:52 73° ENE 21:19:57 36° SE
Cosmos 2221 4.2 21:21:18 19° NE 21:21:18 19° NE 21:22:58 10° NNE
Cosmos 2016 Rocket 3.8 21:14:43 10° S 21:20:55 79° E 21:27:05 10° N
USA 186 3.4 21:22:51 20° WSW 21:22:59 20° W 21:24:44 10° NW
Cosmos 389 Rocket 3.4 21:24:14 36° NNE 21:24:14 36° NNE 21:26:29 10° NNE
Cosmos 1328 3.6 21:20:15 10° N 21:24:14 87° E 21:25:05 54° S
Resurs 01 Rocket 3.8 21:21:04 10° SSW 21:24:44 25° W 21:28:25 10° NW
Cosmos 1184 Rocket 3.2 21:24:49 10° NNW 21:28:09 63° W 21:28:29 59° SW
CZ-4C R/B 3.4 21:24:31 10° S 21:33:10 19° NE 21:34:52 10° NE
Cosmos 2058 3.3 21:25:46 10° N 21:29:16 46° NE 21:29:16 46° NE
Cosmos 1725 Rocket 3.9 21:26:22 16° S 21:31:20 66° E 21:37:28 10° NNE
Envisat 3.2 21:31:29 25° S 21:34:29 71° WSW 21:39:35 10° NNW
Cosmos 1743 Rocket 4.2 21:30:49 10° NNW 21:35:10 55° W 21:37:42 24° SSW
Cosmos 1500 Rocket 3.6 21:31:29 10° N 21:35:49 76° W 21:36:54 49° S
OAO 2 Rocket 4.2 21:31:57 10° SW 21:36:08 34° S 21:36:08 34° S
Meteor 2-1 Rocket 4.2 21:35:34 46° SE 21:36:54 58° E 21:42:27 10° NNE
Cosmos 1626 4.1 21:33:46 10° NNE 21:35:12 20° NNE 21:35:12 20° NNE
MetOp-B 4.4 21:41:43 48° ENE 21:41:49 48° ENE 21:46:57 10° N
CZ-4B DEB 4.4 21:41:50 30° WSW 21:42:03 30° W 21:44:51 10° NNW
Cosmos 1939 Rocket 3.3 21:41:38 47° SSW 21:42:34 60° W 21:46:42 10° NNW
ERS-1 Rocket 2.8 21:43:12 65° SE 21:43:53 77° ENE 21:48:57 10° N
Cosmos 2369 Rocket 2.1 21:42:49 51° SSE 21:43:58 62° ESE 21:49:32 10° NNE
Helios 1B rocket 4.3 21:45:29 10° N 21:49:08 31° WNW 21:52:44 10° SW
Lacrosse 5 rocket 3.0 21:46:54 10° WNW 21:49:57 22° WSW 21:50:09 22° SW
Cosmos 2151 3.1 21:47:16 10° NNW 21:51:27 70° W 21:51:27 70° W
Tsikada Rocket 3.9 21:49:17 10° N 21:55:33 88° W 21:57:31 47° S
ISS -1.4 21:53:21 10° WNW 21:55:50 22° NNW 21:55:50 22° NNW
H-2A R/B 3.4 21:59:47 28° NE 21:59:47 28° NE 22:03:04 10° N
Cosmos 1943 Rocket 4.3 22:09:02 14° NE 22:09:02 14° NE 22:09:47 10° NE
NOAA 11 4.1 22:04:43 75° NE 22:04:43 75° NE 22:10:03 10° N
ATLAS 5 CENTAUR R/B 4.3 22:03:47 10° W 22:07:31 22° NW 22:11:31 10° NNE
MetOp-A 4.5 22:28:11 61° WNW 22:28:11 61° WNW 22:33:03 10° NNW
Lacrosse 5 4.5 22:25:48 10° NW 22:28:20 14° N 22:30:52 10° NNE
SPOT 5 3.6 22:31:28 58° NW 22:31:28 58° NW 22:35:48 10° NNW
USA 245 4.5 22:32:34 73° NW 22:32:34 73° NW 22:38:23 10° NNW
Terra 3.9 22:35:21 19° NNE 22:35:21 19° NNE 22:36:50 10° N
Cosmos 2233 Rocket 4.2 22:33:29 62° WSW 22:34:02 65° W 22:40:09 10° N
ARGOS 3.7 22:36:23 54° NNW 22:36:23 54° NNW 22:40:32 10° NNW
USA 215 3.2 22:28:59 10° NE 22:35:31 77° NW 22:42:02 10° WSW
CZ-3B DEB 4.2 22:42:05 10° NW 22:44:49 14° NNW 22:45:41 13° N
MOS 1-B Rocket 4.5 22:58:15 76° W 22:58:15 76° W 23:04:57 10° NNW
USA 267 3.7 23:08:51 54° N 23:08:51 54° N 23:14:09 10° NW
CZ-4C R/B 3.7 23:17:57 33° NW 23:18:01 33° NW 23:23:28 10° NNE
Cosmos 2369 Rocket 4.4 23:24:13 10° W 23:28:27 21° NW 23:32:40 10° N
H-2A R/B 4.3 23:40:24 22° NW 23:40:24 22° NW 23:42:32 10° NNW
Cosmos 2227 Rocket 4.4 23:39:56 10° N 23:41:45 19° N 23:41:45 19° N
Cosmos 1943 Rocket 4.3 23:50:28 22° NNW 23:50:28 22° NNW 23:53:08 10° N
